Tracking 19574 objects as of 16-Feb-2019
HD Live streaming from Space Station
objects crossing your sky now

COSMOS 644

Track COSMOS 644 now!
10-day predictions
COSMOS 644 is classified as:


NORAD ID: 7268
Int'l Code: 1974-024D
Perigee: 1,342.3 km
Apogee: 1,487.8 km
Inclination: 74.0 °
Period: 114.0 minutes
Semi major axis: 7786 km
RCS: 0.704 m2 (medium)
Launch date: April 23, 1974
Source: Commonwealth of Independent States (former USSR) (CIS)
Launch site: PLESETSK MISSILE AND SPACE COMPLEX (PKMTR)
aabbcc
Your satellite tracking list
Your tracking list is empty




NASA's NSSDC Master Catalog

Two Line Element Set (TLE):
1  7268U 74024D   19046.46929780 -.00000002 +00000-0 +75380-4 0  9995
2  7268 074.0161 069.1873 0093447 097.0020 264.1678 12.63642077067301
Source of the keplerian elements: AFSPC